Temperature
22 21 21 21 23 25 27 29 30 30 30 29 29 29 28 27 26 24 23 22 21 21 21 20 20 20 19 19 19 19 19 19 19 19 19 19 19 19 19 19 19 19 19 19 19 19 19 18 19
21 21 22 23 24 26 28 30 29 30 30 30 29 29 28 26 25 23 23 22 21 21 20 20 20 20 19 19 19 19 19 19 19 19 19 19 19 19 19 19 19 19 19 19 19 19 19 19 19
22 22 23 25 27 28 29 30 30 30 30 30 29 28 27 26 24 23 23 22 21 21 21 21 20 20 19 19 19 19 19 19 19 19 19 19 19 19 19 19 19 19 19 19 19 19 19 19 18
22 24 25 27 28 30 30 30 31 31 30 30 29 28 26 25 24 23 23 22 22 21 21 21 20 20 19 19 19 19 19 19 19 19 19 19 19 19 19 19 19 19 19 19 19 19 19 19 19
23 25 26 28 30 31 31 31 31 31 30 29 28 27 25 24 24 23 23 23 22 21 21 21 21 20 20 19 19 19 19 19 19 19 19 19 19 19 19 19 19 19 19 19 19 19 19 19 19
25 27 27 29 30 31 32 31 31 31 30 29 28 27 25 24 24 24 23 23 22 21 21 21 21 20 20 20 19 19 19 19 19 19 19 19 19 19 19 19 19 19 19 19 19 19 19 19 19
27 29 29 30 30 31 32 31 31 31 30 29 29 27 25 24 24 24 24 23 23 22 21 21 21 20 20 20 20 19 19 19 19 19 19 19 19 19 19 19 19 19 19 19 19 19 19 19 19
29 30 30 31 31 31 32 32 31 30 30 29 29 28 25 24 24 24 24 23 23 22 21 21 20 20 20 20 20 20 20 19 19 19 19 19 19 19 19 19 19 19 19 19 19 19 19 19 19
30 29 30 31 32 31 32 32 31 30 30 29 28 27 26 24 24 24 24 23 23 22 22 21 20 20 20 20 20 20 20 19 19 19 19 19 19 19 19 19 19 19 19 19 19 19 19 19 19
31 30 31 32 33 33 33 32 32 31 30 29 28 26 25 25 24 24 24 23 23 22 22 22 21 21 20 20 20 20 20 19 19 19 19 19 19 19 19 19 19 19 19 19 19 19 19 19 19
33 32 33 33 33 33 33 33 32 32 30 29 28 26 25 25 25 24 24 23 23 22 22 22 21 21 21 20 20 20 20 20 19 19 19 19 19 19 19 19 19 19 19 19 19 19 19 19 19
34 34 34 34 34 33 33 33 32 32 31 29 28 27 26 25 25 24 24 23 23 23 22 22 21 21 21 20 20 20 20 20 19 19 19 19 19 19 19 19 19 19 19 19 19 19 19 19 19
33 34 34 34 34 33 33 32 32 31 30 29 28 27 26 26 25 25 24 24 23 23 22 22 21 21 21 20 20 20 20 20 20 19 19 19 19 19 19 19 19 19 19 19 19 19 19 19 19
33 34 34 34 34 33 33 32 32 31 30 29 28 28 27 26 25 25 24 24 23 22 22 21 21 21 21 20 20 20 20 20 20 19 19 19 19 19 19 19 19 19 19 19 19 19 19 19 19
33 33 33 34 34 34 33 32 32 31 30 30 29 28 27 27 26 25 24 24 23 22 22 21 21 21 20 20 20 20 20 20 20 20 19 19 19 19 19 19 19 19 19 19 19 19 19 19 19
33 32 31 33 34 34 33 30 32 31 31 30 29 28 27 27 26 25 24 24 23 23 22 21 21 21 21 20 20 20 20 20 20 20 19 19 19 19 19 19 19 19 19 19 19 19 19 19 19
32 31 31 32 34 34 33 31 32 32 31 30 29 29 28 27 26 25 24 24 23 22 22 21 21 21 21 20 20 20 20 20 20 20 20 20 20 20 19 19 19 19 19 19 19 19 19 19 19
31 32 32 32 34 34 33 32 33 32 32 31 30 29 28 27 26 25 24 24 23 22 22 21 21 21 21 20 20 20 20 20 20 20 20 20 20 20 20 19 19 19 19 19 19 19 19 19 19
33 33 33 33 35 34 33 32 33 33 32 31 30 29 28 27 26 25 24 24 23 22 22 21 21 21 20 20 20 20 20 20 20 20 20 19 19 19 19 19 19 19 19 19 19 19 19 19 19
33 33 33 34 35 34 33 33 33 33 32 31 30 29 28 27 26 25 25 24 23 22 22 21 21 21 21 20 20 20 20 20 20 20 19 19 19 19 19 19 19 19 19 19 19 19 19 19 19
33 33 34 33 34 34 32 31 32 32 32 32 31 30 29 28 27 26 25 24 23 23 22 21 21 21 21 21 20 20 20 20 20 19 19 19 19 19 19 19 19 19 19 19 19 19 18 18 19
33 34 34 34 33 32 32 30 30 31 31 32 31 30 29 28 27 26 25 24 24 23 22 22 21 21 21 20 20 20 20 20 19 19 19 19 19 19 19 19 19 19 19 18 18 18 18 18 18
34 35 34 33 32 31 31 30 29 30 30 31 31 31 30 29 27 26 25 24 24 23 22 22 21 21 21 20 20 20 19 19 19 19 19 19 19 19 19 18 18 18 18 18 18 18 18 18 18
35 34 33 32 31 29 30 30 29 29 30 30 31 30 30 29 28 26 25 24 24 23 23 22 21 21 20 20 20 19 19 19 19 19 19 19 19 19 19 18 18 18 18 18 18 18 18 18 18
35 33 30 30 29 30 31 30 29 31 31 31 31 30 30 29 28 27 26 25 24 23 23 22 21 21 20 20 20 20 19 19 19 19 19 19 19 19 18 18 18 18 18 18 18 18 18 18 18
34 33 30 29 30 30 31 30 30 32 32 31 31 30 30 29 28 27 26 25 24 23 22 22 21 21 20 20 20 20 20 19 19 19 19 19 18 18 18 18 18 18 18 18 17 17 17 17 17
33 33 34 32 31 31 30 30 30 31 32 32 31 30 29 28 28 27 26 25 24 23 22 22 21 21 20 20 20 20 20 19 19 19 19 18 18 18 18 18 18 17 17 17 17 17 17 17 17
34 34 33 32 30 30 30 29 28 28 29 31 31 30 29 28 27 26 25 24 24 23 22 22 21 21 20 20 20 20 20 19 19 19 19 19 18 18 18 17 17 17 17 17 17 17 17 17 17
33 33 32 32 31 30 29 28 30 29 30 31 30 29 28 27 26 25 25 24 23 23 22 22 21 21 21 20 20 19 19 19 19 18 18 18 18 18 18 18 17 17 17 17 17 17 16 16 16
32 32 32 31 30 31 30 29 30 30 30 30 30 29 28 27 26 25 24 23 23 22 22 21 21 21 21 20 20 19 19 19 18 18 18 18 18 18 17 17 17 17 17 17 17 16 16 16 16
Wind_Speed
9 11 8 4 4 2 5 9 10 10 10 10 11 11 15 15 10 9 7 10 15 15 14 13 12 12 12 12 13 13 12 12 11 10 9 8 8 8 7 7 7 6 6 5 5 5 5 5 5
9 9 6 4 3 3 8 10 11 10 9 10 13 14 15 15 13 11 9 11 14 14 14 13 13 12 12 12 12 12 12 11 11 10 9 8 7 6 6 6 6 6 5 5 5 5 4 4 5
11 10 4 3 1 7 10 10 9 9 9 10 12 13 11 10 12 9 10 11 14 14 15 14 13 12 12 12 11 11 11 11 10 9 7 7 6 6 6 5 5 5 5 5 5 5 4 4 5
6 5 4 2 4 10 10 8 8 9 10 11 11 10 12 11 10 10 11 12 14 15 15 15 14 13 12 12 11 11 11 10 9 8 7 6 6 6 5 5 5 5 5 5 6 5 5 5 5
7 4 2 1 7 10 9 8 9 10 11 12 14 14 13 12 12 11 10 12 14 15 15 14 14 13 12 12 11 10 10 10 9 7 7 6 5 5 5 4 4 4 5 5 6 6 6 6 6
5 3 1 3 8 9 9 8 10 11 10 11 12 15 11 10 10 10 10 11 13 15 15 14 14 13 12 12 11 10 10 9 8 7 6 6 5 5 5 4 4 5 5 5 6 7 7 7 7
7 3 2 5 7 9 9 8 10 9 10 9 10 12 11 10 9 9 8 11 13 14 14 13 13 12 12 12 11 10 10 8 8 7 6 6 5 5 5 5 4 5 6 6 7 7 8 8 8
5 4 4 4 7 8 7 7 9 9 9 7 7 9 10 10 9 8 9 10 11 12 12 12 12 12 11 12 11 10 10 8 8 7 6 5 5 6 7 6 6 5 5 6 7 8 9 10 10
4 2 3 6 7 7 5 6 8 9 9 9 11 13 13 14 11 9 9 9 8 8 9 9 11 10 10 11 11 10 10 9 7 6 6 5 5 6 7 7 8 6 7 8 9 10 11 11 11
2 0 4 6 6 6 5 6 6 7 8 10 12 14 14 13 10 9 9 9 8 7 7 8 7 7 8 8 9 8 8 9 7 6 6 6 5 4 4 8 9 8 8 9 11 12 11 10 9
2 1 3 4 5 5 5 6 4 5 8 8 11 14 13 12 10 9 8 9 8 6 6 8 7 6 6 5 5 4 5 6 6 6 4 4 3 4 4 5 6 7 8 7 8 9 7 7 6
2 2 2 2 4 4 5 4 6 8 9 9 12 14 12 12 11 10 9 9 8 7 7 8 7 6 4 4 3 4 3 4 3 4 3 2 1 1 1 1 2 4 4 4 3 4 5 4 4
4 2 1 1 2 5 4 4 6 8 9 11 12 13 12 11 10 10 10 9 8 6 7 8 7 6 4 3 0 3 3 3 4 4 3 2 1 0 0 0 1 1 2 2 2 2 2 2 3
4 4 2 1 3 5 4 4 5 8 10 10 11 11 11 11 11 9 9 9 8 6 7 8 7 7 4 3 1 1 2 2 2 3 3 3 1 1 0 1 1 1 1 0 1 2 2 2 2
5 6 4 3 3 4 5 5 4 8 10 10 10 10 10 10 11 10 9 8 8 7 8 7 7 7 5 3 2 2 1 3 2 3 3 1 1 0 1 1 1 1 2 1 2 2 1 2 2
9 7 4 3 3 4 3 4 6 7 10 10 10 10 10 9 10 9 9 7 7 8 8 6 6 7 5 3 1 1 1 2 2 2 2 1 1 0 1 1 0 1 1 1 1 1 1 1 2
9 6 3 3 3 3 3 4 6 7 9 9 10 9 10 10 10 10 10 9 8 8 8 6 5 7 6 4 3 1 1 1 1 1 2 2 1 0 1 1 1 2 1 1 2 0 1 2 2
8 5 4 4 3 3 3 5 7 7 9 9 10 10 10 9 9 10 9 10 9 8 8 7 5 5 5 4 3 2 2 1 1 1 2 1 1 1 2 1 1 2 0 0 1 1 2 2 2
10 6 4 3 3 3 3 6 6 6 8 9 9 10 10 9 10 10 9 10 10 8 8 7 6 5 3 3 3 2 2 2 1 1 2 1 0 1 1 2 0 2 1 0 1 1 2 2 1
10 8 6 4 3 3 2 3 6 7 8 9 9 9 9 10 10 10 10 9 10 10 9 7 6 6 5 3 2 1 1 1 1 1 2 1 0 2 1 1 2 2 1 1 1 2 1 2 1
9 9 7 6 6 4 3 3 5 6 8 9 9 10 11 11 12 11 9 9 10 10 10 9 7 6 6 4 3 1 1 0 0 1 1 1 1 2 2 1 2 3 2 1 2 2 2 2 2
9 9 9 8 7 6 5 2 3 4 5 8 9 10 10 11 12 11 10 9 9 10 10 8 7 6 6 5 3 3 2 1 1 1 1 1 1 1 0 1 1 2 3 2 2 1 2 2 3
10 9 8 9 8 8 7 4 3 5 6 7 8 10 10 10 11 10 10 9 9 9 10 9 8 6 6 5 4 3 2 1 1 1 1 1 1 1 0 0 1 1 2 3 4 3 2 2 3
11 10 9 8 7 9 8 6 3 5 7 7 8 8 9 10 10 10 9 9 8 8 8 9 8 7 6 5 4 3 2 1 0 0 0 1 1 1 0 0 0 1 1 2 3 3 2 3 3
11 9 6 7 7 9 7 4 2 5 7 8 9 9 9 9 10 10 10 10 8 7 7 8 9 7 6 6 4 4 3 2 2 2 1 2 1 1 1 0 0 1 2 2 2 2 2 3 3
11 10 9 8 9 7 3 3 3 2 5 6 9 9 9 9 8 9 10 10 9 9 8 8 9 7 7 6 5 4 3 2 2 2 2 2 1 1 0 1 0 1 2 3 2 3 3 3 3
12 11 11 11 12 10 4 3 1 1 4 5 6 8 8 8 8 8 9 9 9 9 8 8 9 7 7 6 6 5 4 2 1 2 2 1 1 1 1 0 1 1 2 3 3 3 2 3 3
13 11 9 8 8 9 5 3 3 3 4 6 6 6 7 6 5 6 8 7 7 7 6 6 7 7 7 6 5 5 4 4 3 2 1 0 0 1 1 1 1 2 2 2 3 3 3 3 3
10 11 9 8 8 9 6 2 2 3 1 2 6 5 6 7 6 6 6 7 6 6 7 6 6 6 6 5 4 3 4 4 3 2 1 1 1 1 0 1 2 2 2 2 3 4 3 4 4
10 11 10 8 8 8 7 2 3 1 2 1 3 6 6 7 6 7 6 5 6 6 5 4 5 5 5 4 3 3 3 3 3 3 2 2 1 1 1 1 2 2 2 2 4 5 4 4 4
Wind_Direction
203 218 225 244 254 243 56 58 58 59 62 56 56 63 61 54 59 88 99 100 105 109 112 107 102 100 102 104 107 111 115 119 122 122 120 118 117 119 120 124 125 128 132 131 136 134 131 136 151
222 224 233 244 267 56 57 61 63 65 70 73 66 68 69 63 75 97 101 104 110 112 111 107 107 103 105 109 110 111 113 118 121 124 126 125 124 126 128 135 141 141 145 147 149 144 145 149 158
238 239 251 238 3 55 61 59 68 74 75 77 77 64 60 72 78 96 110 116 113 111 111 111 111 109 109 112 111 112 114 116 119 122 126 129 131 135 138 142 148 151 157 163 163 160 167 168 173
238 234 245 259 55 65 70 68 69 76 74 74 81 76 68 70 91 107 121 121 114 112 111 116 115 114 115 115 114 115 116 117 120 123 126 128 132 137 141 143 154 165 169 175 181 177 183 186 191
245 250 252 36 62 74 77 76 73 74 73 74 80 90 86 83 98 112 120 119 113 113 115 118 120 118 118 117 119 120 121 122 123 125 126 126 133 142 150 155 162 173 178 182 181 189 201 206 210
253 238 275 55 70 75 76 73 79 75 79 87 92 96 95 102 106 116 119 117 115 116 116 122 127 127 125 124 125 127 128 128 129 132 135 137 147 153 163 172 176 185 188 189 191 199 208 213 218
257 296 359 62 73 72 71 75 77 82 80 83 100 103 109 110 109 115 120 113 114 118 123 131 135 136 136 135 136 136 136 139 142 144 148 155 164 170 175 182 181 188 196 199 202 207 212 215 219
271 322 351 58 79 74 66 76 77 82 78 82 97 105 121 124 123 123 114 108 111 119 129 136 139 144 147 146 152 153 151 156 157 161 164 173 183 188 187 187 186 194 203 215 217 218 221 224 225
257 296 354 41 73 91 92 89 88 92 95 82 78 100 121 130 132 125 113 110 108 111 121 129 137 147 151 149 150 159 159 164 167 172 180 189 201 190 191 178 178 196 212 221 225 227 228 228 231
214 1 29 39 58 94 97 94 100 105 100 96 97 105 121 132 134 131 131 125 115 117 126 121 125 132 137 140 147 163 162 164 177 172 184 201 210 205 179 169 188 201 214 226 228 230 232 229 228
235 57 44 48 65 76 88 100 99 101 101 113 124 129 137 140 137 137 131 121 122 131 121 116 111 109 118 122 144 154 154 156 173 171 189 206 218 205 181 183 195 209 217 226 222 221 227 226 223
285 330 8 47 66 70 70 83 84 75 94 111 123 134 143 147 146 140 131 130 137 138 126 115 112 103 95 109 137 153 146 153 158 165 201 206 217 260 168 187 206 211 214 213 212 210 220 230 235
288 298 344 77 98 89 87 84 89 96 104 113 124 136 145 148 144 140 140 134 127 127 118 107 112 105 99 86 83 125 138 143 153 157 174 237 205 214 161 105 269 248 219 194 214 219 226 236 234
302 312 294 178 150 133 123 115 111 113 116 118 127 139 144 143 139 137 137 130 131 137 123 117 117 109 106 116 109 97 105 125 137 136 145 220 194 128 213 205 257 288 276 180 255 245 219 227 234
289 274 268 224 179 157 134 122 118 118 124 129 135 140 138 140 141 141 137 138 145 142 127 126 127 124 125 128 151 126 135 135 120 121 131 180 148 145 258 244 233 285 283 221 243 272 253 234 236
266 260 253 236 222 147 149 124 131 143 140 141 144 143 142 143 142 143 139 141 134 132 127 136 142 131 130 124 101 77 90 90 104 124 124 126 99 206 264 258 236 274 274 230 226 252 269 284 265
271 250 255 217 202 142 147 147 155 158 143 143 143 147 150 149 150 145 148 151 140 134 133 136 133 135 140 143 147 156 70 62 87 115 117 127 137 204 253 253 252 264 243 278 279 171 282 273 273
276 275 238 222 165 161 160 145 149 164 147 145 148 152 152 153 154 149 156 156 144 140 138 141 146 137 141 148 155 163 151 169 197 138 112 121 203 287 296 229 219 286 259 291 319 300 269 257 267
271 279 273 256 162 196 170 149 157 164 150 150 154 151 152 153 155 153 161 158 150 148 147 152 157 149 152 161 167 166 175 191 179 176 126 127 317 315 317 327 236 277 301 333 311 292 284 272 253
275 280 283 292 247 231 194 167 162 165 166 161 156 154 159 158 154 155 161 159 156 153 154 156 158 156 165 168 166 172 169 193 178 164 120 132 344 316 286 285 306 287 272 250 276 282 282 280 263
272 280 277 269 249 231 209 207 174 171 168 158 156 159 167 165 160 160 163 163 163 161 162 168 164 162 167 165 166 166 142 266 93 117 121 163 225 238 297 344 307 316 308 273 247 274 275 289 287
276 283 292 285 279 267 239 231 181 170 187 170 166 167 170 165 162 161 163 164 167 165 164 159 155 159 163 168 171 183 179 188 214 199 174 197 215 235 205 331 318 315 325 325 284 281 284 286 283
278 288 292 290 285 280 257 247 184 166 196 190 180 173 167 162 160 159 164 165 167 165 162 155 152 153 158 175 173 188 194 197 213 207 161 226 210 199 323 139 273 298 309 319 320 334 320 312 308
269 278 279 278 268 262 259 264 210 184 190 187 186 174 159 158 157 156 158 158 161 160 155 149 147 153 159 168 170 182 191 185 246 242 202 251 235 198 249 166 224 284 289 296 304 307 311 306 309
258 267 275 274 257 250 228 233 235 172 175 172 173 164 157 157 160 160 159 156 154 153 148 147 148 155 160 164 174 174 185 201 207 250 238 261 265 202 163 297 287 282 288 287 296 289 293 291 292
257 259 262 272 280 274 252 201 184 138 131 152 148 145 148 156 160 160 157 154 158 156 148 149 151 159 166 170 173 171 171 211 211 218 256 274 297 314 86 151 230 286 290 292 286 273 271 279 278
260 259 260 268 272 274 246 186 153 28 117 125 130 132 141 149 155 152 148 152 156 156 156 155 152 160 168 174 170 172 177 194 205 220 231 269 312 303 42 314 268 272 285 293 293 287 292 297 287
254 263 270 268 273 277 253 229 201 181 196 157 136 134 130 119 121 128 135 137 141 145 149 147 154 160 164 173 183 182 182 191 201 215 201 214 308 339 337 333 308 296 293 299 296 286 277 275 276
262 256 263 280 281 281 283 232 164 185 232 138 132 125 117 112 117 120 122 132 133 139 144 152 163 162 162 168 170 172 176 175 179 197 204 217 263 269 287 307 302 305 310 305 296 289 287 283 289
272 270 263 268 278 279 284 240 155 186 112 48 119 126 113 112 120 116 109 114 120 123 128 148 154 153 156 154 162 176 174 180 189 192 201 208 217 236 246 269 288 294 297 298 295 297 298 295 289
Height
1491 1491 1492 1495 1493 1490 1483 1473 1468 1469 1470 1472 1472 1473 1477 1481 1487 1499 1500 1499 1499 1498 1499 1499 1499 1500 1501 1501 1502 1504 1506 1508 1509 1511 1513 1515 1516 1518 1519 1520 1521 1523 1524 1525 1526 1527 1528 1529 1530
1491 1493 1495 1494 1492 1492 1483 1471 1472 1471 1472 1473 1474 1477 1480 1486 1491 1496 1499 1500 1500 1500 1500 1500 1501 1502 1502 1503 1505 1506 1508 1509 1511 1513 1514 1516 1517 1519 1520 1521 1522 1523 1524 1525 1526 1527 1528 1529 1530
1491 1494 1494 1490 1486 1484 1481 1471 1471 1471 1473 1474 1477 1481 1485 1491 1494 1497 1500 1501 1501 1501 1501 1502 1502 1503 1504 1505 1506 1508 1509 1511 1512 1514 1515 1517 1518 1519 1520 1521 1522 1523 1524 1525 1526 1527 1528 1529 1530
1494 1494 1492 1485 1483 1474 1472 1471 1470 1471 1473 1475 1478 1484 1491 1494 1497 1499 1500 1502 1503 1503 1503 1503 1504 1504 1505 1507 1508 1509 1510 1512 1513 1515 1516 1517 1518 1519 1520 1521 1522 1523 1524 1525 1526 1527 1528 1529 1530
1494 1492 1488 1484 1477 1471 1469 1470 1471 1473 1475 1478 1481 1488 1494 1498 1499 1500 1502 1503 1504 1505 1505 1505 1506 1506 1507 1508 1509 1510 1512 1513 1514 1516 1517 1518 1519 1520 1521 1522 1522 1523 1524 1525 1525 1527 1528 1529 1530
1492 1486 1489 1486 1477 1470 1469 1471 1472 1475 1478 1481 1484 1489 1497 1500 1500 1502 1503 1505 1505 1506 1506 1507 1507 1508 1509 1510 1511 1512 1513 1514 1515 1517 1518 1519 1520 1521 1521 1522 1523 1523 1524 1525 1525 1526 1527 1528 1529
1489 1483 1482 1479 1477 1474 1471 1472 1473 1476 1478 1481 1484 1489 1497 1500 1502 1503 1505 1506 1507 1507 1508 1508 1509 1510 1510 1511 1512 1513 1514 1515 1516 1518 1519 1520 1520 1521 1522 1522 1523 1523 1523 1524 1525 1526 1527 1528 1528
1484 1481 1480 1475 1476 1476 1472 1473 1475 1477 1480 1483 1484 1489 1496 1501 1502 1504 1506 1507 1508 1509 1509 1510 1510 1511 1512 1513 1514 1515 1516 1516 1517 1518 1519 1520 1521 1522 1522 1522 1523 1523 1523 1524 1524 1525 1526 1527 1528
1482 1484 1483 1475 1473 1474 1472 1473 1476 1479 1481 1484 1486 1490 1495 1499 1502 1504 1506 1508 1509 1511 1511 1512 1512 1512 1513 1514 1515 1516 1517 1517 1518 1519 1520 1521 1521 1522 1522 1523 1523 1523 1523 1523 1524 1524 1525 1526 1527
1479 1483 1478 1470 1468 1470 1471 1473 1475 1477 1481 1485 1489 1493 1496 1499 1502 1504 1506 1508 1509 1511 1512 1513 1514 1514 1515 1516 1516 1517 1518 1518 1519 1520 1520 1521 1522 1523 1523 1523 1523 1523 1523 1522 1523 1523 1524 1525 1525
1474 1474 1470 1469 1468 1469 1470 1472 1474 1476 1480 1485 1490 1493 1497 1499 1502 1504 1506 1508 1510 1511 1513 1513 1514 1515 1516 1517 1517 1518 1519 1519 1520 1520 1521 1521 1522 1523 1523 1523 1523 1522 1522 1522 1522 1522 1523 1524 1525
1471 1469 1468 1468 1469 1469 1471 1472 1474 1477 1481 1485 1489 1493 1496 1498 1501 1503 1505 1508 1510 1511 1513 1513 1514 1515 1516 1517 1518 1519 1519 1520 1520 1520 1521 1522 1522 1523 1523 1523 1522 1522 1522 1522 1522 1522 1523 1524 1524
1471 1469 1469 1468 1469 1470 1471 1473 1475 1479 1482 1486 1489 1493 1495 1498 1501 1503 1505 1508 1510 1511 1513 1513 1514 1515 1516 1517 1518 1519 1520 1520 1521 1521 1521 1521 1522 1522 1522 1522 1522 1522 1522 1522 1523 1523 1523 1523 1523
1472 1470 1468 1468 1468 1469 1471 1474 1476 1479 1483 1486 1489 1492 1495 1498 1500 1503 1506 1507 1509 1511 1512 1513 1514 1514 1515 1516 1517 1519 1520 1520 1521 1521 1521 1521 1522 1522 1522 1522 1522 1522 1522 1522 1522 1522 1522 1522 1523
1472 1472 1470 1466 1465 1467 1469 1475 1475 1478 1482 1486 1489 1492 1495 1498 1500 1503 1505 1507 1509 1510 1511 1512 1513 1514 1515 1516 1517 1518 1519 1520 1521 1521 1521 1521 1521 1521 1522 1522 1522 1522 1522 1522 1522 1522 1521 1521 1521
1473 1474 1478 1468 1464 1464 1471 1484 1475 1477 1480 1484 1488 1491 1494 1497 1500 1502 1504 1507 1508 1509 1510 1512 1514 1514 1515 1516 1517 1518 1519 1520 1521 1521 1521 1521 1521 1521 1521 1521 1521 1521 1521 1521 1521 1520 1520 1520 1520
1475 1481 1478 1470 1462 1462 1469 1477 1473 1474 1478 1482 1486 1490 1493 1496 1499 1501 1503 1506 1507 1508 1510 1511 1513 1513 1514 1515 1516 1517 1518 1519 1520 1520 1520 1520 1521 1521 1521 1521 1521 1521 1520 1520 1520 1520 1519 1519 1519
1483 1478 1477 1471 1462 1461 1467 1471 1470 1472 1475 1480 1484 1488 1491 1494 1498 1500 1502 1505 1506 1508 1509 1511 1512 1513 1514 1515 1516 1517 1518 1519 1519 1520 1520 1520 1520 1520 1520 1520 1520 1520 1520 1519 1519 1519 1518 1518 1518
1468 1470 1471 1464 1458 1461 1466 1468 1469 1470 1473 1477 1481 1485 1489 1493 1496 1498 1501 1503 1505 1506 1508 1509 1511 1512 1513 1514 1515 1516 1517 1518 1519 1519 1519 1519 1519 1519 1519 1519 1519 1519 1519 1518 1518 1518 1517 1517 1517
1465 1470 1468 1463 1456 1459 1465 1467 1466 1468 1471 1475 1479 1483 1487 1491 1494 1497 1499 1501 1503 1505 1506 1508 1509 1511 1512 1513 1515 1516 1517 1517 1518 1518 1518 1518 1518 1518 1519 1518 1518 1518 1518 1517 1517 1517 1516 1516 1517
1465 1467 1465 1465 1457 1456 1466 1474 1469 1467 1469 1473 1477 1481 1484 1488 1491 1495 1497 1499 1501 1503 1504 1506 1508 1509 1511 1512 1514 1515 1516 1517 1518 1518 1517 1517 1517 1517 1517 1517 1516 1516 1516 1516 1516 1515 1515 1515 1515
1469 1457 1457 1460 1467 1473 1470 1489 1476 1470 1470 1471 1474 1478 1481 1485 1488 1492 1495 1497 1499 1501 1503 1505 1506 1508 1509 1511 1513 1514 1514 1515 1516 1517 1517 1517 1517 1516 1516 1515 1515 1515 1515 1514 1514 1514 1514 1514 1514
1461 1454 1457 1460 1468 1475 1473 1484 1482 1471 1475 1471 1472 1475 1478 1482 1486 1489 1492 1495 1498 1500 1501 1503 1504 1506 1508 1509 1511 1512 1513 1514 1515 1516 1516 1516 1516 1515 1514 1514 1514 1513 1513 1513 1513 1513 1512 1512 1512
1454 1456 1459 1462 1471 1490 1478 1483 1485 1472 1471 1469 1470 1473 1476 1480 1484 1487 1490 1493 1496 1499 1500 1502 1503 1505 1506 1508 1509 1510 1511 1512 1513 1514 1514 1514 1514 1514 1513 1513 1512 1512 1511 1511 1511 1511 1510 1510 1510
1455 1467 1486 1492 1492 1488 1468 1477 1480 1463 1461 1463 1466 1470 1474 1478 1482 1486 1488 1491 1494 1497 1498 1500 1501 1503 1504 1506 1507 1509 1510 1511 1511 1512 1512 1513 1513 1512 1511 1511 1510 1510 1509 1509 1509 1509 1508 1508 1507
1456 1463 1487 1501 1497 1483 1470 1478 1471 1458 1459 1461 1464 1468 1472 1477 1480 1484 1486 1489 1492 1495 1497 1499 1500 1501 1503 1504 1506 1507 1508 1509 1510 1511 1511 1511 1511 1511 1510 1509 1509 1508 1507 1507 1507 1506 1506 1505 1505
1457 1458 1455 1469 1474 1479 1478 1473 1465 1459 1458 1461 1464 1468 1472 1475 1479 1482 1485 1488 1491 1493 1496 1497 1498 1500 1502 1503 1504 1505 1506 1507 1508 1509 1509 1509 1509 1509 1508 1508 1507 1506 1506 1505 1504 1504 1503 1503 1503
1448 1450 1456 1467 1486 1491 1482 1480 1479 1472 1465 1461 1465 1467 1471 1475 1478 1482 1484 1486 1490 1492 1494 1495 1497 1498 1500 1502 1503 1504 1504 1505 1506 1507 1507 1507 1507 1507 1507 1506 1505 1505 1504 1503 1502 1502 1501 1501 1500
1453 1454 1456 1461 1465 1481 1490 1488 1464 1465 1463 1462 1465 1468 1471 1475 1479 1482 1484 1486 1488 1491 1493 1495 1496 1497 1498 1500 1501 1502 1503 1503 1504 1505 1505 1505 1505 1505 1504 1504 1503 1503 1502 1501 1500 1500 1499 1499 1498
1451 1453 1455 1471 1473 1468 1478 1483 1458 1460 1461 1463 1465 1468 1472 1474 1478 1481 1484 1486 1489 1490 1492 1493 1495 1496 1497 1499 1499 1500 1501 1502 1502 1502 1503 1503 1503 1503 1502 1502 1501 1500 1499 1499 1498 1497 1497 1496 1495